Location: Lombard
(41.8800°N, 88.0080°W)
Time: 18:55:41
(UTC-06:00)

Vanguard 3 - Pass Details

Date: 13 December 2023
Orbit: 508 x 3239 km, 33.4° (Epoch: 23 February)

Event Time Altitude Azimuth Distance (km) Brightness Sun altitude
Rises 19:46:49 0° 247° (WSW) 7,172 12.8 -37.3°
Reaches altitude 10° 19:51:59 10° 244° (WSW) 6,033 12.1 -38.3°
Maximum altitude 20:09:23 57° 173° (S) 2,708 9.5 -41.5°
Enters shadow 20:09:33 57° 171° (S) 2,697 9.4 -41.5°
